Location: Observatoire
(46.1952°N, 5.3391°E)
Time: 22:55:51
(UTC+01:00)

A-11 Canister half - Pass Details

Date: 26 February 2026
Orbit: 1525 x 1683 km, 47.3° (Epoch: 9 March)

Event Time Altitude Azimuth Distance (km) Brightness Sun altitude
Rises 15:07:40 0° 234° (SW) 4,775 12.7 27.4°
Reaches altitude 10° 15:10:48 10° 232° (SW) 3,771 12.7 27.0°
Maximum altitude 15:20:12 68° 153° (SSE) 1,648 9.8 26.0°
Drops below altitude 10° 15:29:24 10° 73° (ENE) 3,697 10.6 24.9°
Sets 15:32:26 0° 71° (ENE) 4,677 11.0 24.5°
